Retour au catalogue

CZ-6A DEB

ActifSSO
NORAD 56655·DEBRIS·🇨🇳 China

Lancé Nov 11, 2022 depuis Taiyuan Satellite Launch Center

Loading…

Prochains Passages (prochaines 24 heures)

TLE

VieillissantSource: Space-Track

Époque: Sep 9, 2026, 08:44 UTC

1 56655U 22151AGF 26252.36394870  .00001092  00000-0  34453-3 0  9999
2 56655  98.6183 289.7345 0085751 107.2350 253.8245 14.40205104177179

Suivez CZ-6A DEB en temps réel avec AllMySat

Download on the App Store